RH
70 71 73 75 77 75 75 75 72 63 59 67 71 68 65 61 62 67 66 66 66 64 60 58 60 65 67 71 74 74 73 70 74 76 77 80 79 77 76 74 66 62 72 78 75 75 62 37 26 26 22 21
68 70 69 68 69 73 79 78 75 70 70 77 76 67 58 54 55 59 61 61 63 65 63 58 58 65 68 71 73 73 70 68 71 75 76 78 78 76 76 71 48 37 53 65 62 61 56 37 22 22 20 19
68 65 55 51 55 67 74 73 75 75 71 69 67 63 54 52 52 51 55 56 57 63 60 51 52 67 75 73 73 71 68 65 67 72 74 75 75 74 76 71 42 25 33 44 48 44 39 30 23 23 22 20
61 46 37 48 61 64 61 63 73 73 66 63 66 64 56 54 51 48 55 56 55 54 51 45 46 62 75 73 71 70 67 65 65 68 68 68 67 66 71 65 40 27 28 29 33 34 31 28 27 26 25 23
49 41 37 51 65 62 55 61 69 67 63 60 59 58 55 53 51 50 57 58 54 49 46 46 44 49 57 58 59 60 58 59 63 66 66 65 61 60 62 51 34 31 31 29 29 30 31 30 29 28 28 27
56 58 56 61 69 65 58 59 59 58 56 53 51 51 51 51 53 53 55 53 48 46 45 45 44 44 45 44 44 45 45 45 49 55 60 62 60 57 50 39 35 35 33 33 33 33 34 33 33 33 31 31
69 68 68 72 73 64 56 55 53 52 49 48 47 47 48 48 50 49 48 45 42 43 43 43 43 44 44 43 42 42 42 42 41 43 46 48 49 47 41 38 38 37 37 36 35 36 37 37 37 37 36 35
60 61 62 64 65 59 55 53 49 48 45 45 44 43 44 44 44 43 42 40 39 39 38 38 38 38 39 40 42 43 43 43 43 43 42 41 41 42 41 41 40 40 40 38 37 38 39 40 40 40 39 37
52 53 53 54 56 54 52 50 47 44 42 40 39 39 39 39 39 39 39 37 37 36 33 33 31 29 31 34 38 41 44 44 44 44 45 44 43 43 43 43 43 43 42 40 40 39 39 41 40 41 42 40
49 49 50 50 50 49 48 45 44 41 39 37 36 37 36 37 37 37 37 37 37 36 34 32 28 26 25 30 36 40 43 45 45 46 48 49 48 47 47 47 46 46 46 45 43 41 40 41 41 42 43 43
45 46 46 47 46 46 45 44 43 41 41 40 39 38 38 38 38 39 38 37 37 35 34 32 27 24 23 28 35 42 45 46 47 48 49 51 52 52 51 50 50 50 49 48 47 44 43 43 43 42 43 45
43 44 45 45 45 45 44 44 43 43 43 42 41 41 40 41 41 41 39 37 36 33 31 29 26 22 21 25 31 39 45 47 47 48 50 52 53 53 53 53 52 51 51 50 48 46 44 44 44 43 43 45
42 43 43 43 43 43 43 43 42 43 42 41 42 42 42 42 41 40 39 37 34 32 29 26 24 21 18 20 25 31 38 44 47 48 50 52 53 53 53 53 53 52 51 50 49 47 45 43 45 46 46 46
40 40 40 41 41 41 41 41 41 41 41 41 41 42 42 41 40 39 38 37 35 33 30 25 22 19 16 15 18 24 30 37 42 45 47 48 49 49 49 49 48 48 47 47 46 45 45 45 48 50 51 50
39 40 40 40 40 41 41 41 42 42 42 42 41 40 40 40 39 39 38 37 35 33 30 25 21 18 15 13 15 20 24 29 34 37 40 42 43 42 41 39 38 39 40 41 41 44 46 48 51 53 54 53
42 43 43 43 43 43 43 43 43 42 42 40 40 40 39 39 39 38 36 34 32 30 27 24 20 17 15 15 15 18 22 26 29 31 31 32 34 33 32 30 29 31 33 35 38 42 46 48 51 52 53 53
46 47 47 45 45 44 42 43 42 41 41 40 40 40 39 39 37 34 31 29 27 26 23 21 20 19 18 19 19 19 23 25 26 28 27 26 26 26 25 24 24 24 27 29 32 36 40 43 45 46 47 47
48 49 49 48 46 45 44 43 42 42 41 41 40 39 38 36 33 30 27 26 25 22 20 19 19 21 24 26 26 25 26 28 28 27 25 23 24 23 22 22 23 23 24 25 26 28 30 32 33 34 35 34
50 50 50 49 49 47 46 45 45 45 43 42 41 38 37 34 32 30 26 25 23 21 20 21 23 24 28 31 30 31 30 32 31 26 22 19 18 18 19 20 20 21 23 24 24 24 25 25 25 23 22 21
49 49 49 49 48 47 46 45 44 43 41 39 38 37 36 34 32 29 26 24 22 22 24 26 29 29 31 33 32 32 32 32 30 26 21 15 14 17 19 20 19 20 20 21 22 22 22 21 20 20 18 15
43 43 44 43 42 42 40 39 38 36 34 33 33 34 33 33 32 28 26 23 21 26 30 32 35 36 36 36 35 32 30 29 28 25 20 13 14 19 22 22 22 21 21 22 21 20 18 17 16 16 15 14
41 41 41 40 40 39 37 35 33 31 29 28 29 30 32 32 31 27 24 21 24 31 36 37 38 40 40 38 36 32 28 25 23 22 18 13 15 19 24 26 26 25 25 23 21 19 16 15 15 14 14 13
41 41 41 41 41 40 39 36 32 30 28 27 30 33 35 34 31 26 21 22 29 34 35 36 36 37 36 35 33 30 28 25 23 21 15 13 18 19 22 27 28 25 24 23 20 18 16 14 14 12 11 10
38 38 37 38 40 41 40 37 31 29 28 29 35 40 40 37 33 25 19 23 28 31 31 31 32 32 31 30 29 28 27 27 26 21 16 22 26 22 23 25 22 23 23 21 17 16 16 14 12 10 11 16
37 38 38 38 40 41 40 36 29 27 28 30 36 42 41 37 33 26 21 23 26 28 28 29 29 29 30 28 28 28 28 29 25 20 23 30 29 28 35 29 23 26 23 22 25 23 19 14 13 17 20 24
40 41 41 41 41 40 39 34 26 26 29 30 33 39 38 35 34 30 25 22 25 27 27 30 30 29 29 28 28 29 29 29 24 26 33 33 30 36 43 34 32 35 28 35 42 37 39 35 23 22 25 29
42 42 42 42 42 39 37 32 24 23 26 25 24 27 32 36 39 35 29 24 24 26 28 31 31 29 29 29 30 29 30 28 26 34 39 33 35 45 43 34 39 39 32 42 47 49 64 56 35 33 36 38
44 43 42 42 41 38 34 28 22 19 18 17 14 18 33 43 42 36 33 29 25 23 27 31 30 30 30 29 30 28 30 31 31 39 36 29 40 47 42 40 44 37 30 41 51 62 70 58 61 69 57 44
45 43 42 41 40 38 32 25 21 19 18 17 12 16 32 43 40 38 37 34 29 24 25 29 31 32 31 31 30 29 34 34 33 37 31 31 42 43 41 46 46 37 37 44 46 54 62 67 90 88 58 46
45 42 42 42 41 37 33 28 25 23 22 21 18 14 22 35 40 41 41 39 36 30 26 28 31 32 31 32 31 31 37 35 31 34 32 36 43 42 44 47 46 43 44 45 36 40 54 63 75 69 56 58
45 43 42 41 41 37 33 31 28 25 24 23 24 17 15 29 42 44 43 42 41 36 31 29 29 30 31 32 31 34 40 36 32 35 37 41 43 43 47 46 46 47 46 46 41 45 52 50 51 53 57 64
Wind_Speed
13 12 12 14 13 11 10 9 9 10 10 11 12 11 11 10 9 9 10 10 12 13 15 15 14 14 13 13 12 12 13 14 13 11 11 11 11 11 11 11 12 12 12 12 13 13 14 13 12 11 12 11
9 8 9 10 10 9 9 9 10 10 10 10 10 10 10 10 9 8 8 10 11 12 13 13 13 14 13 13 12 12 13 14 13 12 11 11 11 11 11 11 11 12 12 13 13 13 13 13 13 13 13 12
6 6 7 8 8 7 8 8 7 8 8 7 7 9 10 10 9 8 7 8 10 11 11 10 11 13 14 13 13 13 13 14 13 12 12 12 12 12 11 11 12 12 12 13 13 14 14 14 14 14 14 13
5 7 6 5 6 5 5 4 4 6 7 7 7 9 10 9 9 8 6 6 9 10 9 9 9 11 13 13 14 14 13 13 13 12 12 12 12 12 11 11 14 14 14 14 14 15 15 14 14 15 15 14
6 7 5 4 5 5 5 4 4 5 7 8 9 9 9 8 8 7 5 6 8 9 9 9 8 8 10 11 12 13 12 12 13 13 12 13 13 13 12 13 15 15 15 16 16 16 16 16 15 16 16 15
6 6 5 5 6 7 7 7 7 7 8 9 9 9 9 8 8 7 6 7 8 8 8 8 8 8 9 10 11 11 11 11 11 12 12 12 12 12 12 14 15 15 16 16 17 17 17 17 17 17 16 15
6 5 6 7 9 9 10 9 9 10 10 10 10 10 10 10 9 8 8 8 8 8 8 9 9 10 10 11 11 11 11 11 11 12 11 10 11 11 11 13 13 14 15 16 17 17 17 18 18 18 17 16
9 9 9 10 10 9 9 9 9 10 10 11 11 11 11 10 9 9 8 9 9 9 10 10 11 11 12 12 12 12 12 12 12 12 11 10 10 11 11 11 12 13 14 15 16 16 16 17 17 17 17 16
15 13 12 11 10 9 8 7 8 9 9 10 10 10 11 10 10 10 10 11 11 12 13 13 13 13 13 13 13 13 13 13 12 12 12 11 11 11 12 12 13 13 14 15 16 16 16 16 15 16 16 16
16 15 14 13 11 9 8 7 7 8 9 9 10 10 10 10 11 12 12 13 14 15 16 16 16 16 15 14 14 14 14 14 14 14 13 12 12 13 13 14 15 15 16 16 17 17 17 16 15 15 15 15
15 15 14 13 11 10 10 9 8 9 10 10 10 11 12 12 14 15 15 17 17 18 18 19 19 18 17 16 15 15 16 16 15 16 16 16 16 16 16 17 17 17 18 18 18 19 18 18 17 16 15 15
16 15 14 12 11 11 10 9 9 10 11 11 12 13 14 15 17 18 19 20 20 20 20 20 20 19 18 17 17 17 17 18 18 18 18 19 19 20 20 20 20 21 20 20 20 21 20 19 19 18 17 16
15 14 12 11 11 11 10 9 10 11 11 12 13 14 16 17 19 20 21 22 22 22 21 21 21 20 20 19 19 19 18 19 20 20 21 21 22 22 23 23 23 24 24 23 23 22 22 21 20 19 18 18
13 12 11 11 10 10 10 10 11 11 12 13 14 15 17 18 20 21 22 23 23 22 22 22 21 21 21 20 20 20 20 20 21 22 22 23 23 24 24 25 25 25 26 25 24 23 23 22 21 19 19 18
11 11 10 10 9 9 9 10 10 11 12 13 14 16 17 19 20 21 22 23 23 23 23 22 22 22 21 21 21 21 21 21 21 22 22 23 23 24 24 24 24 24 25 25 24 23 22 22 21 21 20 21
10 10 9 9 8 8 8 9 10 11 13 14 15 16 18 19 20 21 23 23 24 24 23 23 22 22 21 21 21 21 22 22 22 22 22 23 23 23 23 24 23 23 24 24 24 23 22 22 22 22 22 23
7 8 8 8 8 8 8 9 10 12 13 14 15 16 18 19 20 21 23 23 24 23 23 23 22 22 21 21 21 21 22 22 22 23 23 23 24 24 24 25 25 24 24 24 24 24 23 23 23 23 24 25
5 6 7 7 8 8 9 10 11 12 13 14 15 16 17 18 20 21 22 23 23 23 22 22 22 22 22 22 22 22 22 23 23 24 24 25 25 25 25 25 25 25 26 25 25 25 25 25 25 25 25 25
5 6 7 7 8 9 10 11 12 13 14 15 15 16 17 19 20 21 23 23 23 23 22 22 22 22 22 22 23 23 23 24 25 25 25 25 25 26 25 25 25 25 26 27 27 27 26 27 27 27 27 26
7 7 8 8 9 9 11 12 13 14 15 15 16 17 18 20 21 22 23 22 22 22 21 21 22 22 22 23 23 24 24 25 25 26 27 26 25 26 26 26 27 26 27 28 29 29 29 29 29 29 28 28
8 8 9 9 9 10 10 11 13 14 15 16 17 18 19 20 21 22 22 22 21 20 20 20 21 21 22 23 24 24 25 25 26 26 27 27 25 25 26 27 28 28 28 29 30 31 31 30 30 30 30 29
10 10 10 10 10 11 12 12 13 13 14 15 16 17 18 20 21 21 21 20 19 18 18 19 20 21 21 22 23 24 25 26 26 27 27 28 26 25 25 26 27 29 30 31 32 33 32 30 30 29 29 28
11 11 12 12 13 13 14 15 14 13 14 14 14 15 16 18 19 20 20 18 17 17 17 18 19 20 20 22 23 24 25 26 27 27 27 27 26 26 25 23 25 27 29 31 32 31 31 30 29 28 27 26
11 12 14 14 15 16 16 16 15 13 13 12 12 13 15 16 17 18 17 15 15 16 16 17 18 19 20 21 23 24 25 26 26 26 25 24 25 26 25 24 24 25 28 31 31 29 29 29 29 28 23 17
11 13 14 15 15 16 16 16 15 14 12 11 12 12 14 15 16 17 15 13 14 15 16 17 18 19 20 21 21 23 23 24 24 24 23 22 23 24 23 25 24 24 27 26 25 28 30 30 27 20 14 12
10 11 12 12 13 14 15 14 14 13 11 11 11 12 14 15 15 16 15 13 13 15 16 16 17 18 19 19 20 21 22 23 23 22 21 22 24 21 20 22 21 23 23 18 19 21 21 23 19 11 10 11
8 8 9 10 10 11 12 12 12 11 10 11 11 12 13 14 15 16 15 13 14 14 15 16 17 17 17 18 18 20 21 22 21 20 19 21 21 20 20 20 18 20 19 16 18 14 8 9 10 8 8 10
7 8 8 9 9 10 10 11 12 11 11 12 12 11 11 13 15 16 15 15 15 14 14 15 16 16 16 17 18 19 20 20 18 17 19 19 18 18 20 19 17 18 18 16 15 9 5 5 6 4 6 16
8 7 8 9 10 10 10 12 13 13 13 14 14 12 11 13 15 15 15 16 15 15 14 14 15 15 16 17 18 18 18 17 17 16 17 17 16 17 17 17 17 18 17 14 12 8 6 5 2 3 9 18
9 8 8 9 10 10 11 12 12 13 14 15 15 13 12 12 13 14 15 15 15 16 14 14 14 15 16 17 18 17 16 17 17 17 16 15 15 16 15 15 16 17 16 14 12 10 7 7 6 7 12 10
10 8 8 10 10 10 10 11 12 13 14 15 15 14 13 11 12 14 15 15 16 15 15 15 15 16 16 17 18 16 16 17 17 16 16 14 14 14 13 14 15 16 16 15 14 12 10 11 11 12 11 5
Wind_Direction
82 82 76 71 65 62 58 55 49 41 38 36 35 33 32 30 30 29 28 27 21 20 20 20 18 13 11 10 9 8 6 3 1 2 4 5 5 8 9 8 10 12 13 11 8 5 359 356 357 354 353 351
85 85 70 58 55 55 49 43 36 34 35 32 27 25 26 25 30 34 29 25 20 17 15 18 19 12 7 7 6 4 3 2 1 1 359 1 1 1 5 4 359 3 8 8 5 2 355 350 352 350 349 348
71 60 34 30 31 33 37 35 31 32 29 20 11 15 21 21 27 38 37 28 18 11 10 18 24 14 6 3 0 358 356 357 358 358 355 355 356 354 357 354 349 353 359 0 358 357 352 347 349 349 347 345
61 53 39 41 41 39 39 28 19 15 10 8 5 8 14 12 16 37 47 26 9 9 15 19 23 18 11 7 2 359 353 352 351 349 350 350 350 350 349 341 340 350 354 354 353 352 349 346 345 346 346 345
76 72 71 73 64 54 44 36 31 22 22 21 14 9 6 5 12 35 46 22 15 19 24 20 16 12 8 3 359 357 349 345 345 342 342 342 344 346 341 334 337 346 350 350 349 348 346 343 341 343 344 343
90 85 77 68 65 61 60 63 60 52 48 39 32 28 23 29 34 43 45 33 31 28 25 18 9 1 354 350 347 346 341 337 339 336 335 334 336 337 333 331 334 339 342 345 343 342 341 339 338 338 339 340
83 76 69 70 74 73 71 68 63 59 54 49 47 45 42 47 49 50 46 34 26 16 8 3 355 350 344 340 337 335 333 333 334 332 329 323 321 323 325 326 327 328 332 335 335 334 332 333 333 332 332 333
87 87 87 86 87 83 75 65 59 54 50 49 45 42 41 37 36 34 28 18 9 359 354 349 342 337 333 330 327 325 323 324 327 328 325 315 310 311 315 316 316 317 318 321 324 323 321 322 326 327 326 325
97 99 101 97 96 93 81 66 55 48 43 42 37 35 32 23 18 12 7 2 357 354 351 347 342 337 332 328 323 319 317 318 318 319 318 312 304 302 305 307 308 309 309 312 314 314 313 312 317 323 323 321
100 100 98 95 94 93 80 63 50 43 34 32 28 24 19 11 5 359 356 353 351 350 349 347 344 342 336 330 325 322 318 315 315 314 312 309 304 302 301 301 302 304 305 307 308 309 308 305 307 314 317 316
99 96 93 89 87 82 68 56 45 36 27 21 14 9 5 0 356 353 350 347 346 346 345 344 342 341 338 332 327 325 323 318 315 314 312 310 307 305 303 301 300 301 301 303 304 305 305 302 301 304 306 306
94 90 89 83 78 70 59 47 38 27 17 9 1 357 353 351 349 347 347 345 344 342 341 340 339 338 334 332 328 325 324 320 317 315 314 313 310 308 306 305 304 303 303 303 305 305 304 302 300 299 298 297
87 83 80 72 64 58 47 34 27 14 1 356 351 348 346 345 344 343 344 343 342 340 338 338 337 335 332 331 328 324 323 322 321 319 318 316 313 311 309 308 308 306 305 305 305 305 304 302 300 298 297 294
78 72 64 57 50 41 30 21 13 358 351 348 344 344 344 343 342 342 342 341 340 338 337 336 335 334 332 331 328 326 325 324 324 322 321 319 316 314 311 310 309 308 306 305 305 304 303 301 299 297 296 294
65 58 51 45 36 24 17 9 357 350 348 346 346 346 345 343 342 342 340 339 339 338 337 336 335 334 331 330 330 329 327 326 325 323 321 320 318 317 315 312 311 309 307 305 305 304 302 300 297 296 295 293
53 47 42 35 24 14 8 358 348 345 345 345 346 345 343 343 342 341 339 339 338 338 337 335 335 333 332 330 330 330 329 327 325 322 320 318 317 316 315 313 311 310 308 306 306 305 304 301 297 295 294 292
47 38 31 23 13 8 359 352 349 346 346 344 342 340 340 340 340 340 339 339 338 338 336 335 334 333 333 332 330 330 329 327 326 324 322 320 318 317 316 315 314 313 311 309 308 306 306 303 300 298 295 293
40 30 22 13 6 2 354 352 351 349 348 345 342 341 340 338 339 340 340 340 338 338 337 335 334 333 333 333 331 330 329 329 329 329 328 326 324 321 321 319 319 318 316 314 311 309 307 305 303 301 298 297
29 22 16 10 3 359 355 354 351 349 349 346 345 342 339 339 339 340 340 341 339 338 338 336 335 335 334 333 331 330 330 331 331 332 332 332 330 327 325 323 322 321 319 316 313 311 309 306 306 304 302 300
17 11 8 4 359 357 353 350 347 348 348 346 343 339 338 338 339 339 338 339 338 337 337 336 335 335 333 331 331 331 331 332 334 335 333 333 335 332 330 329 326 325 322 318 315 312 310 308 308 306 304 303
14 9 6 2 359 357 353 349 347 346 345 343 340 338 338 337 337 337 336 336 336 334 335 335 334 334 333 332 332 331 332 334 336 337 335 333 336 336 334 332 331 329 326 321 317 314 311 310 310 307 307 306
12 8 4 1 0 359 357 356 353 349 347 343 338 336 333 332 333 334 334 335 333 332 334 334 332 333 333 333 333 333 333 334 335 337 337 335 334 336 336 335 334 332 328 324 319 316 314 313 310 308 309 308
7 4 360 357 355 355 356 356 356 354 352 345 337 333 328 326 329 331 333 334 332 333 334 334 332 332 333 333 333 334 335 337 338 338 338 336 334 334 335 336 336 334 330 326 321 318 316 313 312 311 310 310
2 0 358 356 353 352 353 353 354 355 353 347 338 331 326 325 328 332 335 333 330 332 334 334 332 331 332 333 333 335 338 341 342 342 340 339 337 335 335 334 337 338 335 329 323 320 317 314 315 315 316 317
359 357 355 355 351 349 350 350 350 351 349 343 335 327 323 325 329 334 338 335 332 334 334 333 332 332 332 333 335 336 339 341 342 343 342 342 341 341 339 337 342 344 341 338 333 328 322 320 323 322 325 326
353 352 351 350 347 344 345 347 348 346 340 331 323 317 318 323 329 335 339 335 333 336 337 336 334 335 334 335 335 335 336 339 342 344 345 344 344 344 341 339 344 346 349 349 337 329 321 325 332 326 325 317
337 339 341 340 339 339 340 344 345 339 327 318 314 314 318 324 327 331 336 334 331 334 339 338 335 335 335 335 337 336 337 340 344 345 344 347 346 344 340 340 343 347 354 346 332 330 315 328 336 324 341 329
316 321 328 329 329 332 335 339 340 335 327 324 323 323 323 323 323 324 328 330 329 331 336 336 334 335 334 333 335 337 339 342 345 343 340 345 348 345 340 339 339 342 350 348 342 342 310 321 327 305 1 336
295 303 315 319 320 323 329 336 339 336 333 333 332 329 320 316 318 317 319 324 325 326 329 331 333 333 332 332 333 336 339 339 340 337 338 344 346 345 341 335 334 337 345 349 347 345 317 321 336 288 337 332
279 289 302 307 309 316 325 332 336 335 332 331 332 327 314 310 312 310 312 318 319 320 321 322 325 326 327 327 330 335 334 332 336 335 336 341 340 341 341 335 333 334 339 339 336 343 327 310 310 304 327 335
268 275 286 291 296 304 314 322 327 329 327 326 328 325 314 305 305 306 308 312 314 317 316 316 316 317 319 321 325 331 328 329 335 333 332 335 334 336 338 337 333 329 332 333 330 336 326 313 312 308 315 316